Valle del Fuerte International Airport

Jump to: basic info | weather | frequencies | runways | comments

Related pages: nearby airports | nearby navaids | notams | map

Basic information (top)

Codes: LMM MMLM
Location: lon 25.685200, lat -109.081001, elev 16 ft / 5 m msl
Status: medium_airport
Scheduled airline service: yes
Links: Wikipedia Mobile

Weather (top)

Current conditions (rec'd 2014/07/25 14:46Z):

MMLM 251446Z 09007KT 10SM FEW010 FEW250 29/22 A2993 RMK SLP135 8/104 HZY

Airport forecast (rec'd 2014/07/24 14:37Z):

TAF COR MMLM 241431Z 2414/2506 16030KT 2 1/2SM BLDU SCT030CB BKN120 BKN200 
     FM241530 15010G20KT 4SM BLDU SCT020CB BKN120 BKN250 
      TEMPO 2416/2418 2SM TSRA BKN015CB 
     FM241800 17010KT P6SM SCT030 BKN120 BKN250 
      TEMPO 2423/2503 4SM TSRA BKN015CB

Frequencies (top)

Verify before use: may be inaccurate or out of date.

TWR: 118.8 MHz (MOCHIS TWR)

Runways (top)

09/27: 6,562 x 148 ft (2,000 x 45 m) — paved — lighted

Latest comments (top)

No comments yet for Valle del Fuerte International Airport

More... (top)

See also NOTAMs and nearby airports and navaids, or visit the Valle del Fuerte International Airport page at the main OurAirports website..